This demonstration page uses our WeatherBlox Daily Observations layout. Learn more.

Left ArrowRight Arrow

39.92423, -83.80882

Hourly Observations for April 21, 2021

Temp ( °F °C ) Dew Point ( °F °C ) Humidity (%) Winds ( mph kmh ) Pressure ( in mb ) Visibility ( mi km ) Precip ( " mm )
12:21 am 00:21 Cloudy with Light Snow 32 0 32 0 100 100 N 10 17 30 1016 2.5 4.02335 0 0
12:31 am 00:31 Cloudy with Light Snow 32 0 32 0 100 100 N 12 19 30 1016 4 6.43736 0 0
12:44 am 00:44 Cloudy with Light Snow 32 0 32 0 100 100 NNW 15 24 30.02 1017 2.5 4.02335 0 0
12:56 am 00:56 Cloudy with Light Snow 31 -0.6 31 -0.6 100 100 N 10 17 29.98 1015 3 4.82802 0 0
1:12 am 01:12 Cloudy with Light Snow 30 -1 30 -1 100 100 NNW 10 17 30.02 1017 2 3.21868 0 0
1:20 am 01:20 Cloudy with Light Snow 30 -1 30 -1 100 100 NNW 8 13 30.02 1017 1.5 2.41401 0 0
1:28 am 01:28 Cloudy with Light Snow 30 -1 30 -1 100 100 NNW 9 15 30.02 1017 1.5 2.41401 0 0
1:37 am 01:37 Cloudy with Light Snow 30 -1 30 -1 100 100 N 9 15 30.01 1016 1.75 2.816345 0 0
1:53 am 01:53 Cloudy with Light Snow 30 -1 30 -1 100 100 NNW 8 13 30.02 1017 1 1.60934 0 0
1:56 am 01:56 Cloudy with Light Snow 31 -0.6 31 -0.6 100 100 NNW 8 13 29.98 1015 0.75 1.207005 0 0
2:11 am 02:11 Cloudy with Light Snow 30 -1 30 -1 100 100 NNW 8 13 30.01 1016 0.75 1.207005 0 0
2:40 am 02:40 Cloudy with Snow 30 -1 30 -1 100 100 NNW 12 19 30.01 1016 0.5 0.80467 0 0
2:44 am 02:44 Cloudy with Light Snow 30 -1 30 -1 100 100 NW 13 20 30.01 1016 1 1.60934 0 0
2:52 am 02:52 Cloudy with Light Snow 30 -1 30 -1 100 100 NNW 10 17 30.01 1016 1.75 2.816345 0 0
2:56 am 02:56 Cloudy with Light Snow 31 -0.6 31 -0.6 100 100 NNW 12 19 29.96 1015 1.75 2.816345 0 0
3:04 am 03:04 Cloudy with Light Snow 30 -1 30 -1 100 100 NW 12 19 30.02 1017 2.5 4.02335 0 0
3:08 am 03:08 Cloudy with Light Snow 30 -1 30 -1 100 100 NW 13 20 30.01 1016 3 4.82802 0 0
3:56 am 03:56 Cloudy 31 -0.6 31 -0.6 100 100 NW 13 20 29.99 1016 10 16.0934 0 0
4:56 am 04:56 Cloudy with Light Wintry Mix 31 -0.6 31 -0.6 100 100 NNW 13 20 30 1016 10 16.0934 0 0
5:56 am 05:56 Cloudy with Light Wintry Mix 31 -0.6 31 -0.6 100 100 NW 12 19 30.03 1017 10 16.0934 0 0
6:46 am 06:46 Cloudy with Light Wintry Mix 30 -1 30 -1 100 100 NW 10 17 30.08 1019 10 16.0934 0 0
6:56 am 06:56 Cloudy with Light Snow 31 -0.6 31 -0.6 100 100 NW 10 17 30.05 1018 8 12.87472 0 0
7:52 am 07:52 Cloudy with Light Snow 30 -1 30 -1 100 100 NW 12 19 30.11 1020 9 14.48406 0 0
7:56 am 07:56 Cloudy with Light Snow 31 -0.6 31 -0.6 100 100 NW 13 20 30.08 1019 9 14.48406 0 0
8:14 am 08:14 Cloudy 30 -1 30 -1 100 100 NW 9 15 30.12 1020 10 16.0934 0 0
8:49 am 08:49 Cloudy with Light Wintry Mix 32 0 30 -1 93 93 WNW 12 19 30.12 1020 10 16.0934 0 0
8:56 am 08:56 Cloudy 32 0 31 -0.6 96 96 NW 12 19 30.1 1019 10 16.0934 0 0
9:56 am 09:56 Cloudy with Light Snow 32 0 31 -0.6 96 96 WNW 10 17 30.11 1020 6 9.65604 0 0
10:04 am 10:04 Cloudy with Light Snow 32 0 30 -1 93 93 WNW 13 20 30.13 1020 5 8.0467 0 0
10:56 am 10:56 Cloudy 34 1.1 30 -1.1 85 85 WNW 9 15 30.13 1020 10 16.0934 0 0
11:28 am 11:28 Mostly Cloudy 36 2 30 -1 81 81 WNW 10 17 30.16 1021 10 16.0934 0 0
11:38 am 11:38 Partly Cloudy 36 2 30 -1 81 81 WNW 9 15 30.16 1021 10 16.0934 0 0
11:56 am 11:56 Partly Cloudy 38 3.3 30 -1.1 73 73 NW 10 17 30.14 1021 10 16.0934 0 0
12:56 pm 12:56 Mostly Cloudy 40 4.4 26 -3.3 58 58 NW 16 26 30.13 1020 10 16.0934 0 0
1:56 pm 13:56 Mostly Cloudy 41 5 25 -3.9 53 53 WNW 17 28 30.12 1020 10 16.0934 0 0
2:56 pm 14:56 Mostly Cloudy 42 5.6 23 -5 47 47 NW 14 22 30.12 1020 10 16.0934 0 0
3:56 pm 15:56 Mostly Cloudy 43 6.1 23 -5 45 45 NW 15 24 30.11 1020 10 16.0934 0 0
4:56 pm 16:56 Cloudy 42 5.6 23 -5 47 47 WNW 10 17 30.09 1019 10 16.0934 0 0
5:56 pm 17:56 Cloudy with Light Rain 36 2.2 32 0 86 86 NW 15 24 30.12 1020 4 6.43736 0 0
5:59 pm 17:59 Cloudy with Light Rain 36 2 32 0 87 87 NW 17 28 30.13 1020 2.5 4.02335 0 0
6:04 pm 18:04 Cloudy with Light Snow 36 2 32 0 87 87 NW 12 19 30.13 1020 1.5 2.41401 0 0
6:17 pm 18:17 Mostly Cloudy with Light Snow 36 2 36 2 100 100 W 8 13 30.13 1020 3 4.82802 0 0
6:20 pm 18:20 Mostly Cloudy with Light Snow 36 2 36 2 100 100 W 8 13 30.13 1020 6 9.65604 0 0
6:29 pm 18:29 Partly Cloudy 37 3 36 2 93 93 W 8 13 30.12 1020 9 14.48406 0 0
6:56 pm 18:56 Mostly Cloudy 36 2.2 34 1.1 93 93 WSW 12 19 30.1 1019 10 16.0934 0 0
7:18 pm 19:18 Cloudy with Light Rain 36 2 34 1 93 93 WSW 15 24 30.12 1020 10 16.0934 0 0
7:24 pm 19:24 Cloudy with Light Rain 36 2 34 1 93 93 WSW 12 19 30.11 1019 10 16.0934 0 0
7:30 pm 19:30 Mostly Cloudy 36 2 34 1 93 93 WSW 9 15 30.12 1020 10 16.0934 0 0
7:38 pm 19:38 Cloudy 36 2 36 2 100 100 WSW 7 11 30.12 1020 10 16.0934 0 0
7:45 pm 19:45 Cloudy with Light Rain 36 2 36 2 100 100 W 9 15 30.12 1020 10 16.0934 0 0
7:51 pm 19:51 Mostly Cloudy with Light Rain 36 2 36 2 100 100 W 6 9 30.12 1020 10 16.0934 0 0
7:56 pm 19:56 Mostly Cloudy 34 1.1 34 1.1 100 100 WSW 6 9 30.11 1020 10 16.0934 0 0
8:13 pm 20:13 Mostly Cloudy 34 1 34 1 100 100 SW 6 9 30.13 1020 10 16.0934 0 0
8:44 pm 20:44 Mostly Cloudy 34 1 34 1 100 100 WSW 7 11 30.13 1020 10 16.0934 0 0
8:56 pm 20:56 Cloudy 34 1.1 34 1.1 100 100 SW 6 9 30.12 1020 10 16.0934 0 0
9:15 pm 21:15 Cloudy with Light Snow 34 1 34 1 100 100 WSW 10 17 30.14 1021 6 9.65604 0 0
9:28 pm 21:28 Cloudy with Light Snow 34 1 34 1 100 100 W 9 15 30.14 1021 7 11.26538 0 0
9:36 pm 21:36 Mostly Cloudy 34 1 34 1 100 100 W 9 15 30.14 1021 9 14.48406 0 0
9:56 pm 21:56 Mostly Clear 33 0.6 33 0.6 100 100 WSW 9 15 30.13 1020 10 16.0934 0 0
10:33 pm 22:33 Mostly Cloudy 34 1 34 1 100 100 NNW 6 9 30.16 1021 10 16.0934 0 0
10:56 pm 22:56 Cloudy with Light Wintry Mix 33 0.6 33 0.6 100 100 NW 6 9 30.14 1021 10 16.0934 0 0
11:31 pm 23:31 Partly Cloudy 32 0 32 0 100 100 W 5 7 30.15 1021 10 16.0934 0 0
11:56 pm 23:56 Clear 31 -0.6 31 -0.6 100 100 SW 6 9 30.13 1020 9 14.48406 0 0

Powered by AerisWeather